• In Italy
  • List of Countries
  • For 7 days
  • Water Temperature
  • Satellite Maps
  • Weather Map
  • Weather Widgets
  • user-avatar
    Login

    Hourly Weather Shkoder

    Today, 22 November, Wednesday

    Time Temperature Precipitation Wind Pressure Humidity
    00:00 +5°C° 0 mm 2 mps 744 mmHg 79%
    01:00 +5°C° 0 mm 2 mps 744 mmHg 80%
    02:00 +5°C° 0 mm 2 mps 744 mmHg 81%
    03:00 +5°C° 0 mm 2 mps 743 mmHg 82%
    04:00 +5°C° 0 mm 2 mps 743 mmHg 83%
    05:00 +5°C° 0 mm 2 mps 743 mmHg 83%
    06:00 +5°C° 0 mm 2 mps 743 mmHg 83%
    07:00 +5°C° 0 mm 2 mps 743 mmHg 83%
    08:00 +7°C° 0 mm 2 mps 744 mmHg 78%
    09:00 +10°C° 0 mm 1 mps 744 mmHg 74%
    10:00 +12°C° 0 mm 1 mps 744 mmHg 70%
    11:00 +12°C° 0 mm 1 mps 743 mmHg 70%
    12:00 +13°C° 0 mm 1 mps 743 mmHg 69%
    13:00 +14°C° 0 mm 1 mps 743 mmHg 69%
    14:00 +13°C° 0 mm 1 mps 743 mmHg 75%
    15:00 +11°C° 0 mm 1 mps 743 mmHg 80%
    16:00 +10°C° 0 mm 1 mps 743 mmHg 86%
    17:00 +10°C° 0 mm 1 mps 743 mmHg 86%
    18:00 +9°C° 0 mm 1 mps 743 mmHg 87%
    19:00 +9°C° 0 mm 1 mps 743 mmHg 87%
    20:00 +9°C° 0 mm 1 mps 743 mmHg 86%
    21:00 +9°C° 0 mm 1 mps 743 mmHg 85%
    22:00 +9°C° 0 mm 1 mps 744 mmHg 84%
    23:00 +9°C° 0 mm 1 mps 743 mmHg 83%

    Tomorrow, 23 November, Thursday

    Time Temperature Precipitation Wind Pressure Humidity
    00:00 +8°C° 0 mm 1 mps 743 mmHg 82%
    01:00 +8°C° 0 mm 1 mps 743 mmHg 81%
    02:00 +8°C° 0 mm 1 mps 743 mmHg 81%
    03:00 +8°C° 0 mm 1 mps 743 mmHg 81%
    04:00 +7°C° 0 mm 2 mps 743 mmHg 81%
    05:00 +7°C° 0 mm 2 mps 743 mmHg 80%
    06:00 +7°C° 0 mm 2 mps 743 mmHg 79%
    07:00 +7°C° 0 mm 2 mps 744 mmHg 78%
    08:00 +10°C° 0 mm 1 mps 744 mmHg 73%
    09:00 +12°C° 0 mm 1 mps 744 mmHg 67%
    10:00 +14°C° 0 mm 1 mps 744 mmHg 61%
    11:00 +15°C° 0 mm 1 mps 743 mmHg 61%
    12:00 +15°C° 0 mm 1 mps 743 mmHg 60%
    13:00 +16°C° 0 mm 1 mps 743 mmHg 60%
    14:00 +14°C° 0 mm 1 mps 743 mmHg 66%
    15:00 +13°C° 0 mm 1 mps 743 mmHg 72%
    16:00 +12°C° 0 mm 1 mps 743 mmHg 79%
    17:00 +11°C° 0 mm 1 mps 743 mmHg 79%
    18:00 +10°C° 0 mm 1 mps 744 mmHg 80%
    19:00 +10°C° 0 mm 1 mps 744 mmHg 81%
    20:00 +10°C° 0 mm 1 mps 744 mmHg 79%
    21:00 +10°C° 0 mm 1 mps 744 mmHg 77%
    22:00 +9°C° 0 mm 1 mps 745 mmHg 76%
    23:00 +9°C° 0 mm 1 mps 745 mmHg 74%

    Day after tomorrow, 24 November, Friday

    Time Temperature Precipitation Wind Pressure Humidity
    00:00 +9°C° 0 mm 1 mps 745 mmHg 73%
    01:00 +9°C° 0 mm 1 mps 745 mmHg 72%
    02:00 +9°C° 0 mm 1 mps 744 mmHg 71%
    03:00 +9°C° 0 mm 1 mps 744 mmHg 71%
    04:00 +9°C° 0 mm 1 mps 744 mmHg 70%
    05:00 +9°C° 0 mm 1 mps 744 mmHg 70%
    06:00 +9°C° 0 mm 1 mps 745 mmHg 70%
    07:00 +8°C° 0 mm 1 mps 745 mmHg 69%
    08:00 +10°C° 0 mm 1 mps 745 mmHg 65%
    09:00 +11°C° 0 mm 0 mps 745 mmHg 60%
    10:00 +13°C° 0 mm 0 mps 745 mmHg 55%
    11:00 +14°C° 0 mm 0 mps 745 mmHg 55%
    12:00 +15°C° 0 mm 1 mps 744 mmHg 56%
    13:00 +16°C° 0 mm 1 mps 744 mmHg 56%
    14:00 +14°C° 0 mm 1 mps 744 mmHg 64%
    15:00 +13°C° 0 mm 1 mps 744 mmHg 71%
    16:00 +12°C° 0 mm 1 mps 744 mmHg 79%
    17:00 +11°C° 0 mm 1 mps 744 mmHg 81%
    18:00 +11°C° 0 mm 1 mps 744 mmHg 82%
    19:00 +10°C° 0 mm 1 mps 744 mmHg 84%
    20:00 +10°C° 0 mm 1 mps 745 mmHg 84%
    21:00 +10°C° 0 mm 1 mps 745 mmHg 83%
    22:00 +10°C° 0 mm 1 mps 745 mmHg 83%
    23:00 +9°C° 0 mm 1 mps 745 mmHg 82%

    25 November, Saturday

    Time Temperature Precipitation Wind Pressure Humidity
    00:00 +9°C° 0 mm 1 mps 745 mmHg 81%
    01:00 +9°C° 0 mm 1 mps 745 mmHg 81%
    02:00 +9°C° 0 mm 1 mps 745 mmHg 80%
    03:00 +9°C° 0 mm 1 mps 744 mmHg 79%
    04:00 +9°C° 0 mm 1 mps 744 mmHg 78%
    05:00 +8°C° 0 mm 1 mps 744 mmHg 77%
    06:00 +8°C° 0 mm 1 mps 744 mmHg 75%
    07:00 +8°C° 0 mm 1 mps 744 mmHg 74%
    08:00 +10°C° 0 mm 1 mps 744 mmHg 69%
    09:00 +12°C° 0 mm 1 mps 744 mmHg 64%
    10:00 +14°C° 0 mm 1 mps 744 mmHg 58%
    11:00 +14°C° 0 mm 1 mps 744 mmHg 59%
    12:00 +15°C° 0 mm 2 mps 743 mmHg 59%
    13:00 +15°C° 0 mm 2 mps 743 mmHg 59%
    14:00 +14°C° 0 mm 1 mps 743 mmHg 65%
    15:00 +13°C° 0 mm 1 mps 743 mmHg 72%
    16:00 +11°C° 0 mm 1 mps 743 mmHg 78%
    17:00 +11°C° 0 mm 1 mps 743 mmHg 79%
    18:00 +10°C° 0 mm 1 mps 743 mmHg 80%
    19:00 +10°C° 0 mm 1 mps 744 mmHg 81%
    20:00 +10°C° 0 mm 1 mps 744 mmHg 80%
    21:00 +9°C° 0 mm 2 mps 744 mmHg 79%
    22:00 +8°C° 0 mm 2 mps 744 mmHg 78%
    23:00 +9°C° 0 mm 2 mps 744 mmHg 77%

    26 November, Sunday

    Time Temperature Precipitation Wind Pressure Humidity
    00:00 +9°C° 0 mm 2 mps 744 mmHg 76%
    01:00 +9°C° 0 mm 2 mps 744 mmHg 75%
    02:00 +9°C° 0 mm 2 mps 744 mmHg 75%
    03:00 +8°C° 0 mm 2 mps 743 mmHg 75%
    04:00 +8°C° 0 mm 2 mps 743 mmHg 75%
    05:00 +8°C° 0 mm 2 mps 743 mmHg 75%
    06:00 +8°C° 0 mm 2 mps 743 mmHg 76%
    07:00 +7°C° 0 mm 2 mps 743 mmHg 76%
    08:00 +9°C° 0 mm 2 mps 743 mmHg 73%
    09:00 +12°C° 0 mm 2 mps 743 mmHg 71%
    10:00 +12°C° 0 mm 3 mps 743 mmHg 68%
    11:00 +12°C° 0 mm 3 mps 742 mmHg 70%
    12:00 +13°C° 0 mm 3 mps 742 mmHg 73%
    13:00 +13°C° 0 mm 3 mps 741 mmHg 76%
    14:00 +13°C° 0.1 mm 3 mps 741 mmHg 78%
    15:00 +12°C° 0.1 mm 3 mps 741 mmHg 81%
    16:00 +13°C° 0.1 mm 2 mps 741 mmHg 84%
    17:00 +12°C° 0.5 mm 2 mps 741 mmHg 84%
    18:00 +12°C° 0.5 mm 2 mps 741 mmHg 85%
    19:00 +11°C° 0.5 mm 3 mps 741 mmHg 85%
    20:00 +11°C° 1.2 mm 3 mps 741 mmHg 85%
    21:00 +11°C° 1.2 mm 3 mps 740 mmHg 85%
    22:00 +11°C° 1.2 mm 3 mps 740 mmHg 85%
    23:00 +11°C° 2.7 mm 3 mps 740 mmHg 87%

    27 November, Monday

    Time Temperature Precipitation Wind Pressure Humidity
    00:00 +11°C° 2.7 mm 3 mps 740 mmHg 90%
    01:00 +12°C° 2.7 mm 2 mps 739 mmHg 92%
    02:00 +12°C° 3.2 mm 2 mps 739 mmHg 94%
    03:00 +12°C° 3.2 mm 2 mps 739 mmHg 95%
    04:00 +12°C° 3.2 mm 2 mps 739 mmHg 96%
    05:00 +12°C° 1.4 mm 2 mps 739 mmHg 96%
    06:00 +12°C° 1.4 mm 2 mps 740 mmHg 95%
    07:00 +12°C° 1.4 mm 2 mps 740 mmHg 95%
    08:00 +12°C° 0.6 mm 2 mps 740 mmHg 93%
    09:00 +12°C° 0.6 mm 2 mps 741 mmHg 90%
    10:00 +13°C° 0.6 mm 2 mps 741 mmHg 88%
    11:00 +11°C° 0.8 mm 3 mps 741 mmHg 85%
    12:00 +11°C° 0.8 mm 3 mps 741 mmHg 83%
    13:00 +11°C° 0.8 mm 3 mps 741 mmHg 80%
    14:00 +10°C° 0.4 mm 3 mps 742 mmHg 80%
    15:00 +9°C° 0.4 mm 3 mps 742 mmHg 80%
    16:00 +8°C° 0.4 mm 3 mps 743 mmHg 80%
    17:00 +7°C° 0 mm 3 mps 743 mmHg 81%
    18:00 +7°C° 0 mm 3 mps 744 mmHg 81%
    19:00 +5°C° 0 mm 3 mps 744 mmHg 82%
    20:00 +4°C° 0 mm 3 mps 745 mmHg 82%
    21:00 +4°C° 0 mm 3 mps 745 mmHg 81%
    22:00 +3°C° 0 mm 3 mps 745 mmHg 81%
    23:00 +3°C° 0 mm 3 mps 745 mmHg 80%
    Show more